Regional Weather Roundup
Issued by NWS

Home | Current Version | Previous Version | Text Only | Print | Product List | Glossary Off
Versions: 1 2 3 4 5 6 7 8 9 10 11 12 13 14 15 16 17 18 19 20 21 22 23 24 25 26 27

000
ASUS45 KBOU 161707
RWRCO

WEATHER ROUNDUP FOR COLORADO
NATIONAL WEATHER SERVICE DENVER/BOULDER CO
1100 AM MDT WED AUG 16 2017

NOTE: "FAIR" INDICATES FEW OR NO CLOUDS BELOW 12000 FEET WITH NO
SIGNIFICANT WEATHER AND/OR OBSTRUCTIONS TO VISIBILITY.

COZ001>005-013-030-031-161800-
...NORTHWEST COLORADO...

CITY           SKY/WX    TMP DP  RH WIND       PRES   REMARKS
CRAIG          FAIR      65  45  48 NW8       30.22F
HAYDEN         FAIR      63  44  50 VRB3      30.25F
MEEKER         FAIR      65  47  52 W3        30.22F
RABBIT EARS PA FAIR      46  37  71 W8        30.42S
STEAMBOAT SPGS FAIR      60  45  56 W5        30.24S
WALDEN         FAIR      57  37  47 CALM      30.30S
$$

COZ006>008-011-161800-
...WEST CENTRAL VALLEYS...

CITY           SKY/WX    TMP DP  RH WIND       PRES   REMARKS
GRAND JUNCTION FAIR      75  42  30 VRB7      30.12S
MONTROSE       FAIR      71  40  32 VRB3      30.20R
EAGLE          FAIR      68  41  37 CALM      30.23F
RIFLE          FAIR      71  42  35 VRB3      30.16F
DELTA          FAIR      75  37  25 CALM      30.16S
NUCLA          NOT AVBL
$$

COZ017>023-064>068-161800-
...SOUTHWEST COLORADO...

CITY           SKY/WX    TMP DP  RH WIND       PRES   REMARKS
DURANGO        FAIR      69  29  22 VRB5      30.24S
CORTEZ         FAIR      74  32  21 SW3       30.19F
PAGOSA SPRINGS FAIR      67  27  22 SW3       30.30S
TELLURIDE      FAIR      64  29  27 N3        30.40S
WOLF CREEK PAS FAIR      46  32  57 S8        30.57S
$$

COZ009-010-012-014-032>034-037-058>063-161800-
...CENTRAL COLORADO...

CITY           SKY/WX    TMP DP  RH WIND       PRES   REMARKS
ASPEN          FAIR      66  35  31 VRB5      30.27S
BUENA VISTA    CLOUDY    65  32  29 N5        30.26S
COPPER MTN     CLOUDY    46  36  66 NW7       30.51R
BERTHOUD PASS  CLOUDY    37  32  81 NW10G25   30.50R
COTTONWOOD PAS FAIR      63  28  27 N3        30.38R
GUNNISON       FAIR      63  37  38 W3        30.28
KREMMLING      FAIR      68  41  37 SE5       30.26F
LEADVILLE      FAIR      55  30  38 NW13      30.37R
MONARCH PASS   PTSUNNY   45  30  57 W21G28    30.61R
SALIDA         PTSUNNY   68  36  31 NE5       30.31S
SUNLIGHT       FAIR      50  34  53 SW8       30.48S
WILKERSON PASS FAIR      50  30  46 CALM      30.49R
$$

COZ069>075-161800-
...SAN LUIS VALLEY/SANGRE DE CRISTO MOUNTAINS...

CITY           SKY/WX    TMP DP  RH WIND       PRES   REMARKS
ALAMOSA        FAIR      68  34  28 CALM      30.26S
DEL NORTE      FAIR      67  34  29 SW8       30.28S
LA VETA PASS   NOT AVBL
SAGUACHE       FAIR      68  34  28 N6G16     30.28S
$$

COZ035-036-038>040-161800-
...NORTHERN COLORADO FRONT RANGE...

CITY           SKY/WX    TMP DP  RH WIND       PRES   REMARKS
DENVER INTL AP PTSUNNY   65  50  58 NE6       30.15R
DMNS CITY PARK   N/A     70  50  48 E3G18     30.14S
AURORA         PTSUNNY   65  50  57 NE6       30.16S
FRONT RANGE AP PTSUNNY   66  54  63 N10G17    30.16S
ERIE MUNI ARPT FAIR      68  49  50 E7        30.18S
BOULDER MUN AP FAIR      70  50  49 SE8       30.13S
CENTENNIAL     PTSUNNY   67  47  48 E8        30.17R
BROOMFIELD     MOSUNNY   68  52  56 E6        30.16R
FORT COLLINS   FAIR      68  55  63 S9        30.13S
LONGMONT       FAIR      73  53  50 E8        30.14S
$$

COZ041-046-047-076>085-087-088-161800-
...PIKES PEAK/PALMER DIVIDE AND SOUTHERN FOOTHILLS...

CITY           SKY/WX    TMP DP  RH WIND       PRES   REMARKS
COLO. SPRINGS  FAIR      67  49  52 S6        30.19S
A. F. ACADEMY  FAIR      66  46  48 S6        30.19S
SCHRIEVER AFB  FAIR      66  47  50 S7        30.19S
CHEYENNE MTN   FAIR      65  49  56 SE15      30.15S
ELLICOTT       FAIR     N/A N/A N/A NW6       30.17S
FALCON         FAIR      65  45  47 S5G17     30.23R
FORT CARSON    NOT AVBL
LIMON          FAIR      64  53  67 NW15      30.14R
MONUMENT HILL  FAIR      61  46  59 NE3       30.24S
CANON CITY     SUNNY     73  52  46 E3        30.14S
WALSENBURG     FAIR      73  46  38 SE5       30.18R
TRINIDAD       FAIR      71  48  43 SE7       30.18R
$$

COZ042>045-048>051-090-091-161800-
...NORTHEAST COLORADO...

CITY           SKY/WX    TMP DP  RH WIND       PRES   REMARKS
GREELEY ARPT   FAIR      70  53  54 W6        30.12S
AKRON          FAIR      68  50  52 N18       30.09S
BURLINGTON     FAIR      72  58  61 NW18      30.05S
WRAY           NOT AVBL
YUMA           FAIR      70  52  52 NW16G24   30.06R
STERLING       FAIR      70  54  56 N18       30.06R
HOLYOKE        FAIR      72  59  64 N15       30.04R
FORT MORGAN    FAIR      70  45  39 NW13G21   30.11S
$$

COZ086-089-092>099-161800-
...SOUTHEAST COLORADO...

CITY           SKY/WX    TMP DP  RH WIND       PRES   REMARKS
PUEBLO         FAIR      75  48  38 S8        30.10S
LA JUNTA       FAIR      75  52  44 MISG      30.09R
LAMAR          FAIR      75  55  49 NW9       30.04S
SPRINGFIELD      N/A     74  55  51 NW14G21   30.08R
$$




USA.gov is the U.S. government's official web portal to all federal, state and local government web resources and services.